Temp
-10 -10 -9 -9 -8 -7 -7 -8 -8 -8 -7 -6 -6 -6 -6 -6 -5 -6 -5 -5 -6 -6 -6 -6 -6 -7 -7 -7 -7 -7 -7 -7 -7 -7 -7 -7 -7 -7 -7 -7 -8 -7 -7 -7 -7
-11 -11 -10 -9 -9 -8 -8 -8 -8 -8 -8 -7 -7 -6 -6 -6 -6 -6 -6 -6 -6 -6 -6 -6 -7 -7 -7 -7 -7 -7 -7 -7 -7 -7 -7 -7 -7 -7 -7 -7 -7 -7 -7 -7 -7
-11 -11 -10 -11 -10 -9 -9 -8 -8 -8 -8 -8 -7 -7 -6 -6 -6 -6 -6 -6 -6 -6 -6 -7 -7 -7 -7 -7 -7 -7 -7 -7 -7 -7 -7 -7 -7 -7 -7 -7 -7 -7 -7 -7 -7
-12 -11 -11 -10 -10 -10 -10 -10 -9 -8 -8 -8 -8 -7 -7 -7 -6 -6 -6 -6 -6 -6 -6 -6 -6 -6 -7 -7 -7 -7 -7 -7 -7 -7 -7 -7 -7 -7 -7 -7 -7 -8 -7 -7 -8
-12 -12 -12 -11 -10 -11 -10 -10 -9 -9 -8 -9 -9 -9 -8 -7 -7 -6 -6 -6 -6 -6 -6 -7 -6 -6 -7 -7 -7 -7 -7 -7 -7 -7 -8 -7 -8 -7 -7 -7 -8 -8 -8 -8 -8
-13 -12 -12 -11 -11 -11 -11 -10 -10 -10 -9 -9 -8 -9 -8 -8 -7 -7 -7 -7 -7 -6 -6 -7 -7 -7 -7 -7 -7 -7 -7 -7 -7 -7 -7 -7 -8 -8 -8 -7 -8 -8 -8 -8 -8
-14 -13 -13 -12 -11 -11 -11 -10 -10 -10 -10 -9 -9 -9 -8 -8 -8 -7 -7 -7 -7 -7 -7 -7 -7 -7 -7 -7 -7 -7 -7 -7 -7 -7 -7 -7 -7 -8 -8 -8 -8 -8 -8 -8 -9
-14 -14 -13 -12 -12 -11 -12 -11 -11 -11 -10 -10 -10 -9 -9 -9 -8 -8 -8 -8 -8 -7 -7 -7 -7 -7 -7 -7 -7 -7 -7 -7 -7 -7 -7 -7 -7 -8 -8 -8 -8 -8 -8 -9 -9
-15 -14 -14 -13 -12 -11 -11 -11 -11 -10 -11 -10 -10 -10 -10 -10 -10 -8 -8 -9 -8 -8 -8 -8 -8 -8 -8 -8 -8 -8 -7 -8 -7 -7 -7 -7 -8 -8 -8 -8 -8 -8 -8 -9 -9
-15 -14 -14 -13 -13 -12 -11 -11 -11 -11 -11 -10 -10 -10 -10 -11 -10 -9 -9 -10 -9 -9 -8 -8 -8 -8 -8 -8 -8 -8 -8 -8 -8 -8 -8 -8 -8 -8 -8 -8 -9 -9 -9 -9 -9
-15 -14 -14 -14 -13 -13 -13 -12 -12 -11 -11 -11 -11 -11 -11 -11 -11 -10 -10 -10 -10 -10 -9 -9 -9 -9 -9 -9 -9 -9 -9 -9 -9 -8 -8 -8 -8 -8 -9 -9 -9 -9 -9 -9 -10
-15 -14 -14 -14 -13 -13 -13 -12 -12 -12 -11 -11 -10 -11 -11 -11 -12 -12 -12 -11 -11 -11 -11 -10 -10 -9 -9 -9 -9 -9 -9 -9 -9 -9 -9 -9 -8 -8 -9 -9 -9 -9 -9 -10 -10
-15 -14 -14 -14 -14 -14 -13 -13 -13 -13 -12 -11 -12 -12 -12 -12 -13 -13 -12 -11 -11 -11 -10 -10 -10 -10 -10 -10 -9 -10 -10 -9 -9 -9 -9 -9 -9 -9 -9 -10 -10 -10 -10 -10 -10
-15 -15 -15 -14 -14 -14 -14 -14 -14 -13 -13 -13 -12 -13 -12 -13 -12 -13 -13 -12 -11 -11 -11 -10 -10 -10 -10 -10 -10 -10 -10 -10 -10 -10 -9 -10 -9 -9 -10 -10 -10 -10 -10 -10 -11
-15 -15 -15 -15 -14 -15 -14 -14 -14 -14 -14 -14 -13 -14 -13 -12 -12 -12 -12 -12 -12 -12 -11 -11 -11 -11 -11 -11 -11 -10 -10 -10 -10 -10 -10 -10 -10 -9 -10 -10 -11 -10 -10 -10 -11
-15 -16 -15 -15 -14 -15 -15 -14 -14 -14 -14 -14 -14 -14 -14 -13 -13 -13 -12 -12 -12 -12 -12 -11 -12 -11 -11 -11 -11 -11 -11 -11 -11 -11 -11 -11 -11 -10 -10 -11 -10 -11 -11 -11 -11
-15 -15 -15 -15 -15 -14 -15 -14 -14 -14 -15 -14 -14 -15 -14 -13 -13 -13 -13 -13 -13 -13 -13 -12 -12 -12 -12 -11 -11 -11 -11 -12 -12 -11 -11 -11 -11 -11 -11 -11 -11 -11 -11 -11 -11
-15 -15 -16 -15 -15 -15 -15 -14 -14 -13 -15 -14 -15 -16 -15 -14 -13 -13 -13 -13 -14 -14 -13 -13 -12 -12 -12 -12 -11 -12 -12 -12 -12 -12 -11 -11 -11 -11 -11 -12 -12 -11 -11 -11 -11
-15 -15 -16 -15 -15 -15 -14 -14 -14 -14 -15 -15 -15 -16 -15 -15 -14 -14 -13 -14 -13 -13 -13 -13 -12 -12 -12 -12 -12 -12 -12 -12 -12 -12 -12 -11 -11 -11 -12 -12 -12 -12 -12 -11 -11
-15 -15 -16 -16 -15 -15 -15 -14 -14 -15 -15 -15 -15 -16 -15 -16 -16 -16 -15 -15 -14 -13 -13 -13 -13 -12 -12 -12 -12 -12 -12 -12 -12 -12 -12 -12 -12 -12 -12 -12 -12 -12 -12 -12 -12
-16 -16 -16 -16 -15 -15 -14 -14 -15 -16 -16 -15 -17 -17 -15 -16 -15 -16 -15 -14 -13 -13 -13 -13 -13 -13 -13 -13 -13 -13 -13 -13 -13 -12 -13 -12 -12 -12 -13 -13 -13 -12 -12 -12 -12
-16 -16 -16 -16 -15 -15 -15 -15 -15 -16 -16 -15 -16 -16 -16 -16 -15 -15 -15 -14 -14 -14 -14 -14 -13 -13 -13 -13 -13 -13 -13 -13 -13 -13 -12 -13 -12 -13 -13 -12 -13 -13 -13 -13 -13
-16 -16 -16 -16 -15 -15 -15 -15 -15 -15 -16 -16 -15 -16 -16 -16 -16 -16 -16 -15 -14 -14 -14 -14 -14 -14 -14 -14 -13 -13 -13 -13 -13 -13 -13 -13 -13 -13 -13 -13 -13 -13 -13 -13 -13
-16 -16 -16 -16 -16 -15 -15 -15 -15 -15 -16 -17 -16 -16 -16 -15 -15 -15 -15 -15 -15 -14 -14 -14 -14 -14 -14 -14 -13 -14 -14 -14 -14 -14 -14 -13 -14 -14 -14 -14 -14 -14 -13 -13 -14
-16 -16 -16 -15 -15 -15 -15 -16 -16 -15 -15 -16 -16 -16 -16 -15 -15 -15 -15 -15 -15 -15 -14 -14 -14 -14 -15 -14 -14 -14 -13 -14 -14 -14 -14 -14 -14 -14 -14 -14 -14 -14 -14 -14 -14
-16 -16 -15 -15 -16 -16 -16 -16 -16 -15 -15 -15 -15 -17 -16 -16 -16 -16 -15 -15 -15 -15 -15 -15 -15 -15 -15 -14 -14 -13 -13 -14 -14 -14 -14 -14 -14 -15 -15 -15 -15 -15 -14 -15 -15
-16 -16 -17 -16 -16 -16 -15 -16 -16 -16 -15 -15 -16 -16 -16 -16 -16 -16 -15 -15 -15 -15 -15 -15 -15 -15 -14 -14 -14 -13 -13 -14 -15 -15 -15 -15 -15 -15 -15 -15 -15 -15 -15 -15 -15
Height
5804 5806 5809 5811 5815 5818 5822 5825 5830 5835 5839 5842 5846 5848 5850 5852 5854 5856 5857 5860 5860 5860 5861 5861 5863 5863 5864 5865 5865 5866 5867 5866 5866 5866 5865 5864 5862 5862 5861 5861 5860 5859 5858 5858 5857
5797 5799 5803 5805 5808 5811 5815 5818 5822 5826 5832 5836 5839 5842 5845 5847 5850 5852 5854 5855 5856 5857 5858 5859 5860 5860 5862 5862 5863 5863 5865 5865 5865 5864 5863 5861 5861 5862 5861 5860 5859 5859 5857 5856 5855
5790 5793 5796 5799 5802 5804 5806 5810 5814 5819 5821 5828 5833 5836 5839 5842 5845 5847 5849 5851 5852 5853 5855 5855 5857 5857 5858 5859 5860 5861 5861 5862 5861 5861 5860 5859 5859 5859 5859 5858 5857 5857 5856 5854 5853
5784 5787 5789 5792 5794 5797 5800 5803 5807 5811 5814 5820 5826 5830 5833 5836 5840 5842 5845 5847 5848 5849 5851 5852 5853 5854 5854 5855 5855 5857 5858 5859 5858 5857 5857 5857 5855 5856 5855 5855 5854 5853 5852 5852 5850
5776 5781 5782 5785 5788 5790 5794 5797 5800 5804 5808 5812 5818 5823 5827 5831 5833 5836 5839 5842 5843 5844 5846 5848 5849 5850 5850 5851 5851 5852 5854 5854 5854 5853 5852 5851 5851 5852 5851 5850 5849 5848 5848 5848 5847
5769 5773 5774 5777 5781 5784 5787 5790 5793 5796 5801 5805 5810 5815 5820 5825 5827 5830 5833 5836 5838 5839 5841 5843 5844 5845 5846 5847 5847 5848 5849 5850 5850 5849 5848 5847 5845 5846 5847 5846 5844 5843 5843 5843 5843
5762 5766 5768 5771 5774 5777 5780 5783 5786 5789 5793 5798 5804 5808 5812 5816 5820 5824 5827 5830 5832 5834 5836 5838 5840 5840 5842 5843 5843 5844 5845 5845 5845 5844 5844 5843 5840 5840 5841 5840 5840 5839 5839 5838 5837
5755 5759 5762 5764 5767 5769 5773 5776 5779 5783 5786 5790 5795 5800 5805 5808 5812 5817 5820 5824 5826 5828 5831 5832 5834 5836 5837 5839 5839 5840 5840 5840 5841 5840 5838 5837 5834 5836 5835 5835 5835 5833 5833 5833 5833
5749 5752 5755 5758 5760 5762 5766 5769 5771 5775 5779 5782 5787 5792 5795 5800 5806 5809 5813 5817 5820 5822 5825 5827 5829 5831 5832 5834 5834 5835 5835 5835 5836 5834 5834 5832 5831 5832 5830 5830 5829 5829 5829 5828 5828
5742 5746 5749 5752 5754 5757 5758 5761 5764 5767 5771 5774 5778 5784 5789 5794 5797 5801 5805 5810 5814 5816 5819 5822 5823 5825 5827 5829 5829 5830 5830 5830 5830 5831 5829 5828 5827 5826 5825 5825 5825 5824 5824 5824 5823
5735 5740 5743 5748 5751 5753 5754 5753 5756 5761 5763 5768 5771 5776 5779 5782 5786 5793 5798 5802 5806 5809 5813 5815 5818 5820 5822 5824 5825 5825 5825 5825 5825 5825 5824 5821 5822 5821 5820 5821 5820 5820 5820 5820 5820
5728 5733 5737 5742 5744 5746 5747 5747 5748 5753 5756 5760 5763 5768 5771 5776 5780 5787 5792 5797 5799 5802 5804 5811 5812 5812 5817 5818 5819 5820 5820 5820 5820 5820 5819 5816 5817 5817 5816 5816 5816 5817 5817 5816 5816
5721 5726 5731 5736 5739 5740 5742 5741 5743 5747 5750 5754 5756 5762 5766 5770 5774 5781 5787 5790 5794 5797 5801 5803 5805 5808 5810 5812 5814 5815 5816 5816 5815 5815 5813 5811 5813 5813 5813 5813 5813 5812 5813 5812 5812
5712 5719 5725 5728 5734 5736 5736 5738 5739 5741 5745 5748 5751 5755 5760 5766 5770 5776 5782 5786 5789 5792 5794 5797 5801 5802 5805 5807 5809 5810 5811 5810 5810 5810 5809 5808 5809 5809 5809 5809 5809 5808 5808 5808 5808
5702 5711 5717 5724 5728 5730 5731 5733 5735 5736 5741 5743 5746 5753 5757 5762 5768 5772 5778 5780 5783 5786 5790 5792 5795 5798 5800 5802 5803 5805 5805 5805 5805 5804 5805 5804 5804 5802 5804 5804 5804 5804 5804 5803 5802
5695 5702 5710 5717 5720 5721 5725 5728 5733 5737 5737 5741 5743 5748 5751 5756 5762 5766 5769 5773 5777 5780 5784 5787 5791 5793 5795 5797 5799 5799 5800 5800 5800 5800 5801 5800 5799 5797 5800 5799 5799 5799 5799 5798 5797
5686 5693 5702 5706 5711 5715 5718 5723 5729 5732 5736 5737 5739 5742 5746 5751 5755 5758 5762 5767 5771 5775 5780 5782 5786 5788 5790 5792 5793 5794 5794 5795 5796 5795 5796 5796 5796 5795 5795 5794 5794 5794 5794 5793 5791
5677 5685 5693 5699 5704 5707 5711 5717 5723 5727 5731 5733 5735 5738 5742 5746 5750 5753 5757 5762 5766 5770 5774 5777 5781 5783 5786 5787 5788 5788 5790 5791 5791 5791 5791 5791 5792 5792 5790 5790 5789 5788 5787 5787 5785
5668 5675 5684 5690 5696 5699 5704 5709 5717 5722 5725 5729 5731 5736 5737 5742 5748 5751 5754 5758 5763 5766 5770 5772 5774 5778 5779 5781 5783 5784 5786 5787 5787 5787 5786 5787 5788 5787 5786 5786 5785 5782 5782 5781 5779
5659 5669 5677 5681 5687 5692 5699 5705 5710 5717 5720 5723 5727 5732 5735 5738 5741 5746 5750 5755 5759 5762 5764 5768 5770 5772 5774 5776 5778 5779 5781 5782 5781 5781 5781 5781 5782 5781 5781 5780 5779 5778 5776 5774 5772
5649 5657 5667 5672 5679 5685 5695 5699 5704 5712 5715 5719 5723 5728 5732 5735 5739 5742 5747 5751 5754 5757 5760 5763 5765 5768 5769 5772 5772 5775 5776 5776 5776 5777 5775 5777 5776 5778 5774 5773 5771 5771 5769 5767 5765
5639 5649 5656 5663 5673 5682 5687 5693 5698 5706 5710 5714 5717 5722 5727 5730 5734 5738 5743 5746 5750 5753 5756 5758 5760 5762 5764 5766 5767 5769 5770 5770 5770 5769 5770 5769 5773 5770 5767 5766 5764 5763 5762 5760 5758
5631 5640 5647 5656 5664 5672 5680 5687 5695 5701 5705 5708 5711 5716 5722 5727 5731 5734 5738 5742 5745 5748 5751 5754 5755 5756 5759 5762 5761 5763 5764 5763 5763 5764 5764 5762 5765 5759 5762 5759 5757 5755 5754 5752 5750
5620 5630 5638 5650 5658 5665 5674 5682 5688 5693 5699 5704 5708 5712 5718 5721 5726 5730 5734 5737 5740 5744 5746 5747 5749 5752 5755 5752 5756 5756 5756 5756 5756 5758 5757 5756 5756 5754 5750 5751 5749 5746 5744 5742 5740
5612 5621 5634 5642 5650 5655 5663 5674 5680 5686 5693 5698 5702 5707 5712 5716 5720 5724 5728 5731 5734 5737 5739 5741 5744 5745 5747 5747 5748 5749 5749 5750 5750 5752 5748 5752 5747 5749 5744 5738 5740 5736 5733 5732 5730
5606 5614 5626 5633 5641 5650 5660 5669 5675 5681 5685 5691 5696 5703 5706 5710 5716 5719 5721 5724 5726 5729 5732 5734 5735 5737 5740 5740 5740 5741 5741 5743 5744 5744 5741 5740 5741 5737 5737 5733 5730 5726 5724 5722 5718
5599 5609 5619 5626 5634 5643 5653 5662 5670 5673 5679 5684 5690 5693 5697 5703 5707 5710 5715 5719 5721 5725 5725 5727 5727 5729 5730 5730 5733 5732 5736 5736 5735 5735 5733 5732 5731 5729 5727 5726 5722 5719 5715 5711 5708
Wind_Speed
33 33 35 36 36 40 46 47 46 45 42 38 36 33 30 26 22 20 20 19 16 15 14 13 14 12 11 10 10 8 8 6 8 7 6 8 7 7 7 7 8 11 13 14 13
33 34 34 36 38 39 43 46 49 47 47 43 39 37 33 30 27 24 22 22 20 18 17 16 16 16 15 14 14 13 11 11 10 11 12 11 11 9 11 9 11 12 13 14 15
35 35 35 37 36 34 37 46 50 53 51 45 42 39 36 34 30 28 25 25 24 20 20 19 18 18 18 17 17 17 17 14 14 13 15 15 16 15 15 14 14 14 15 14 16
36 36 37 37 40 40 36 40 48 47 52 46 44 41 40 38 34 31 29 27 26 24 21 19 18 17 18 18 19 19 19 19 19 19 18 18 19 18 18 18 17 17 18 19 18
38 38 41 40 40 39 42 37 44 48 47 48 52 47 44 40 38 34 31 29 28 28 24 21 19 16 16 17 19 18 17 19 21 23 22 22 23 21 20 22 21 20 20 21 21
40 38 41 41 42 38 41 37 39 44 47 45 52 47 46 43 40 37 35 32 30 30 28 24 21 19 18 17 19 18 17 17 20 22 23 23 26 25 23 24 24 24 24 22 23
40 38 42 39 41 40 40 38 36 38 44 48 49 51 47 46 43 39 37 33 32 30 29 27 24 22 21 19 20 20 18 18 19 21 22 22 26 24 23 25 25 24 24 24 24
40 39 44 41 38 41 41 42 40 39 39 46 52 53 50 49 46 42 37 34 31 30 29 28 27 25 22 20 20 21 20 20 19 20 21 24 28 21 23 24 24 24 24 23 22
41 36 38 44 35 36 41 42 41 38 47 49 54 55 55 50 43 41 37 34 31 29 29 28 27 25 24 20 20 22 21 21 19 22 25 25 27 20 21 22 23 22 21 20 17
41 35 36 34 36 31 39 43 48 47 50 54 57 55 53 46 42 41 39 34 31 29 28 26 26 25 24 20 23 24 22 22 21 21 26 29 28 22 20 19 20 19 18 15 13
40 41 33 33 33 31 36 40 42 48 58 52 53 54 56 53 46 41 39 36 35 33 29 28 27 26 25 24 27 26 23 22 23 24 27 25 26 22 20 19 17 16 14 14 13
42 42 35 32 32 27 29 25 32 34 43 54 60 48 44 34 31 30 31 32 30 28 30 27 27 31 25 25 26 25 23 23 25 26 27 22 25 24 19 18 15 15 14 13 15
45 45 40 35 30 26 27 22 23 30 32 38 37 35 31 30 28 27 30 29 28 29 28 30 31 29 27 26 25 24 22 23 26 29 28 21 22 20 18 17 16 15 14 15 16
46 44 40 36 32 30 29 28 20 23 26 30 31 27 26 25 26 27 29 26 26 25 30 29 26 27 26 24 23 23 23 25 25 26 25 19 22 18 18 17 17 16 16 17 20
50 46 39 38 29 33 27 27 26 26 18 24 27 23 27 30 28 30 29 30 28 27 29 29 26 24 25 22 22 22 24 23 23 22 21 21 22 24 18 18 20 19 19 21 22
49 49 45 43 39 35 30 27 29 25 21 20 21 22 26 28 27 29 32 34 33 32 29 25 21 24 23 24 24 24 25 25 22 21 20 21 21 24 20 22 21 21 22 23 24
53 51 49 48 41 37 29 26 27 32 21 24 21 21 23 26 24 27 28 28 30 32 25 27 23 22 22 21 21 23 22 20 20 20 22 20 20 23 22 24 24 25 26 26 27
57 54 51 48 44 42 40 33 29 27 24 23 21 17 23 21 24 26 27 26 23 23 24 25 24 24 22 21 21 20 20 20 20 22 23 19 20 20 24 26 27 28 29 29 30
51 48 54 50 46 40 36 38 33 27 25 25 23 22 20 27 21 23 22 25 23 24 26 27 26 24 24 23 22 18 19 20 21 22 23 22 19 21 25 26 27 30 30 31 31
48 53 56 51 47 39 42 30 36 26 24 26 26 20 26 18 22 25 25 24 25 26 26 24 24 23 22 21 20 20 20 20 21 22 23 24 22 23 24 28 29 30 31 31 31
60 56 54 53 51 40 47 40 34 27 27 26 26 25 21 24 20 23 25 25 25 23 23 22 23 22 22 19 22 21 20 21 24 23 24 24 26 19 24 28 31 32 33 33 32
57 57 57 59 51 45 43 43 36 31 29 27 29 27 28 21 27 23 26 25 23 22 21 23 24 24 23 22 23 23 21 23 24 27 24 26 25 24 28 31 33 33 33 34 34
60 55 54 51 49 52 47 46 35 35 31 30 30 28 30 29 28 25 25 23 23 23 23 22 22 23 22 23 25 23 24 27 26 26 25 30 25 31 28 32 33 35 35 35 35
58 60 57 55 49 50 52 44 38 39 35 31 29 29 30 32 31 28 27 27 27 28 28 28 27 24 22 28 25 26 28 29 29 28 29 31 28 28 34 33 36 39 39 39 39
60 59 58 57 57 54 51 47 43 38 38 35 33 31 31 30 29 30 29 28 29 29 30 30 27 27 25 28 29 30 31 31 31 29 35 29 33 28 35 42 35 39 42 41 40
63 63 58 59 53 53 47 46 47 43 41 40 37 33 33 33 31 30 31 32 34 32 31 30 31 30 29 31 32 34 34 31 31 31 35 35 34 35 35 37 39 43 44 41 43
59 62 59 58 57 52 51 46 44 40 42 41 39 39 38 36 36 37 35 34 34 32 33 34 35 33 33 35 32 38 30 28 30 31 33 36 36 39 39 39 42 42 44 43 43
Wind_Direction
243 240 239 240 239 235 234 236 232 231 232 229 230 232 239 241 242 244 247 249 250 252 244 248 248 251 253 261 268 268 276 279 292 295 285 284 280 282 286 289 265 272 286 294 302
241 241 238 240 238 242 240 235 232 236 227 228 228 230 235 239 243 243 244 245 247 250 245 247 252 253 254 258 264 270 269 273 272 277 282 274 281 275 284 287 281 283 283 292 296
238 240 238 234 230 234 242 236 233 237 227 224 228 229 233 239 241 242 242 243 243 245 247 248 256 258 256 260 263 268 269 268 270 266 271 275 276 279 282 281 285 285 284 284 290
240 238 241 237 241 243 236 234 233 229 224 223 226 230 232 238 239 241 242 242 241 243 247 250 259 259 257 260 265 269 272 272 271 269 268 269 270 275 278 281 280 280 280 284 284
236 238 241 237 242 239 234 237 233 232 230 227 228 227 232 234 238 239 239 240 239 240 244 249 254 256 259 264 270 272 275 279 276 273 271 271 272 272 273 277 281 281 280 281 282
235 235 240 241 239 237 234 233 240 229 231 229 228 223 228 232 235 236 237 237 239 239 241 244 252 254 260 265 268 272 277 281 281 281 276 275 272 269 268 271 275 280 281 283 283
232 234 236 243 235 235 233 229 233 231 231 230 231 229 229 231 232 233 234 236 237 239 241 243 248 252 257 260 266 270 276 280 281 282 286 288 277 274 270 271 273 277 281 284 285
232 233 232 234 238 238 233 235 234 239 237 233 228 231 227 228 227 229 230 235 236 238 240 241 245 251 255 257 263 269 275 279 281 284 293 294 287 280 275 273 275 277 280 282 284
230 237 236 238 240 236 232 234 237 242 236 235 232 230 222 224 223 225 226 232 235 236 238 241 243 249 253 256 260 265 271 278 274 284 293 293 290 290 280 278 276 278 281 282 279
230 235 231 232 237 246 243 238 236 244 240 238 232 227 220 218 217 221 225 228 232 236 240 241 242 246 250 255 261 264 269 273 275 284 297 296 290 288 282 278 276 279 279 275 276
226 229 221 227 230 235 226 220 233 235 229 230 226 221 221 214 215 220 224 227 230 236 239 241 243 247 250 256 260 261 268 270 276 290 294 289 285 283 281 282 276 274 269 273 276
227 227 221 228 229 231 230 223 222 217 224 232 226 216 209 213 214 218 226 230 236 238 239 237 240 244 251 254 256 261 263 271 280 290 290 282 282 280 276 274 272 269 272 275 282
226 228 225 220 231 236 238 238 232 212 209 216 200 207 210 210 211 220 229 227 229 234 237 239 243 247 250 252 254 255 260 274 285 287 284 281 277 275 275 273 274 274 275 278 285
223 230 233 212 220 227 227 238 245 246 225 212 209 203 210 219 223 223 226 225 226 232 234 239 242 244 247 249 250 254 268 280 285 284 278 275 276 271 273 274 273 273 271 282 292
216 223 231 230 219 219 224 231 232 249 237 222 215 215 218 225 226 226 227 230 230 230 233 235 236 240 244 245 250 263 271 277 281 271 272 272 276 275 272 276 268 269 276 285 293
219 213 222 229 215 216 216 220 233 235 243 235 229 220 223 229 229 228 230 233 238 237 228 231 234 239 248 255 261 263 266 268 269 266 266 268 272 278 281 274 273 273 279 288 294
219 215 218 223 221 221 220 222 233 233 236 238 231 215 222 227 221 222 226 230 230 217 223 239 238 242 246 251 259 264 261 259 260 262 265 266 270 276 281 277 273 275 280 289 295
215 229 226 219 213 220 219 221 228 230 238 247 219 223 213 217 217 219 215 220 224 218 223 232 233 234 248 253 255 257 256 254 263 268 273 273 277 278 277 277 277 278 282 290 296
216 222 215 212 215 218 224 216 222 223 233 239 214 220 238 204 210 214 210 211 220 219 226 228 238 244 249 253 251 249 255 260 267 271 276 280 281 282 282 280 279 280 283 288 294
208 211 215 213 211 222 227 216 225 223 232 228 222 208 222 209 219 209 216 219 220 226 230 236 243 243 243 244 246 252 256 263 268 277 283 284 284 290 287 283 281 282 286 288 293
213 215 217 220 210 219 219 214 223 223 230 235 214 206 218 205 212 222 219 223 225 228 231 232 237 239 243 245 249 255 257 263 272 279 283 288 291 292 286 284 285 287 287 290 293
215 213 216 220 215 217 215 218 215 220 228 235 216 207 215 221 210 217 217 220 223 226 230 234 239 242 248 251 254 256 260 264 271 280 280 286 289 292 286 287 288 289 290 291 292
212 208 203 210 218 217 220 218 214 220 223 230 223 214 211 219 222 224 224 225 226 229 233 236 241 247 248 252 253 259 263 268 273 276 286 285 302 291 289 287 291 292 293 291 290
210 215 215 209 214 217 217 218 215 218 221 220 226 212 217 218 221 225 226 228 232 235 238 243 247 254 257 263 267 264 265 268 270 275 281 282 284 293 294 292 296 297 293 295 295
209 211 216 214 217 219 217 218 218 219 220 221 220 221 220 222 223 226 229 232 235 238 241 246 250 254 259 266 270 270 268 267 273 279 278 285 282 295 288 297 297 296 297 295 294
213 214 214 214 217 221 224 222 221 222 222 222 219 217 221 224 227 230 231 234 237 240 246 252 257 258 260 265 267 271 272 277 276 273 276 277 281 281 288 291 297 298 296 296 294
215 219 214 218 219 220 216 226 224 233 221 224 224 220 223 226 228 234 235 240 246 247 250 254 260 263 265 267 269 271 277 277 275 277 275 278 282 283 285 287 291 293 294 294 293